OBJECT A, 68414

Orbit data source: Space-Track

You're viewing an Uncataloged Satellite

Recently launched and/or uncataloged satellites may have evolving metadata. Metadata may include but not limited to: Owner, Maufacturer, Bus, Motor, and Mission.

OBJECT A, 68414 is a Chinese satellite in LEO that was launched on Mon, 30 Mar 2026 UTC via a LIJIAN-2 launch vehicle from the Jiuquan Satellite Launch Center, China (JSC). Unknown objects in Earth's orbit typically refer to objects detected orbiting the Earth but have not yet been identified or cataloged. These objects could be anything from previously untracked satellites, spent rocket stages, debris from satellite collisions, or even natural meteoroids temporarily captured by Earth's gravity.

Loading next visibility...
Identifier
68414, 2026-066C
Orbit
LEO
Country
Flag of CNCN / PRC
Related business
Flag of CNZhongke Satellite Tech. Group (CN)
Manufacturer
ZHWK
Mission
Spacecraft
Bus & Motor
XZC1, Unknown motor
Mass
~100 kg wet, ~100 kg dry
Launch date (UTC)
2026-03-30 (2 weeks ago)
Launch vehicle
LIJIAN-2
Launch site
Jiuquan Satellite Launch Center, China (JSC)
Object type
Unknown
Shape & HBR
Unknown
Radar Cross Section
RCS unknown

Expand to show TLE details & history
Last TLE update: 6 hours ago

TLE from 6 hours ago
0 OBJECT A
1 68414U 26066C   26102.27476481  .00000984  00000-0  10193-3 0  9991
2 68414  84.9621 269.6790 0027923 121.6358 238.7596 14.88507189  1926
Epoch: 2026-04-12T06:35Z
TLE epoch observation values (Epoch: 2026-04-12T06:35:39.679Z)
Latitude
0.00002°
Longitude
-29.71839°
Altitude
615.854 km
Speed
7.546 km/s
True Right ascension
17h 58m 42s
True Declination
0° 00' 00"
Sunlit
Object was in daylight at epoch
Visualization orbit readout
Latitude
Unknown
Longitude
Unknown
Altitude
Unknown
Speed
Unknown
Apparent Right ascension
Unknown
Apparent Declination
Unknown
Sunlit
N/A
Visualization observer readout
Local Sidereal Time
19:06:08
Azimuth
Unknown
Elevation
Unknown
Doppler factor
Unknown
Orbital elements
Apogee altitude
619.007 km
Perigee altitude
580.039 km
Semi-major axis
6,977.66 km
Eccentricity
0.00279
Inclination
84.9621°
RAAN
269.679°
Arg. of periapsis
121.6358°
True anomaly
238.48652°
Mean anomaly
238.7596°
Eccentric anomaly
238.62301°
Mean motion
3.72373 °/min
Orbital period
96.68 mins
BSTAR
0.00010193
Loading maneuver chart data...
Computing Atmospheric mass density...
Loading historical data...
Loading historical data...
Loading historical data...
Loading historical data...
Loading historical data...
Loading historical data...
Loading historical data...
Other satellites on launch #66 in the year 2026 (2026-03-30 UTC)

Documentation

Showing up to 5 results
|